[[{"header":{"parameterUnit":"m.s-1","parameterCategory":1,"la1":30.2992,"la2":30.254,"lo1":-89.0895,"lo2":-89.0443,"dy":0.0025,"dx":0.0025,"nx":19,"ny":19,"refTime":"2026-04-02T03:00:00:Z","depth":0,"parameterNumber":2,"parameterNumberName":"U-component_of_WINDS"},"data":[0,0,0,-5.581,-5.5815,-5.6034,-5.6035,-5.6314,-5.6316,0,0,0,0,0,0,0,0,0,0,0,-5.5746,-5.5748,-5.581,-5.5816,-5.6034,-5.6035,-5.6313,-5.6316,0,0,0,0,0,0,0,0,0,0,0,-5.5745,-5.5748,-5.575,-5.5816,-5.6034,-5.6035,-5.6313,-5.6148,0,0,0,0,0,0,0,0,0,0,-5.5935,-5.5877,-5.5747,-5.575,-5.5818,-5.6034,-5.6035,-5.614,-5.6158,-5.6215,0,-5.6267,0,-5.6297,-5.6335,-5.6336,0,0,0,-5.5814,-5.5862,-5.5921,-5.5751,-5.582,-5.6034,-5.5935,-5.615,-5.6171,-5.6239,-5.6271,-5.6281,-5.6301,-5.6337,-5.6338,-5.6676,-5.6677,0,0,-5.5802,-5.5785,-5.5906,-5.5934,-5.5902,-5.5928,-5.5942,-5.6162,-5.6195,-5.6272,-5.6288,-5.6306,-5.6339,-5.6341,-5.6674,-5.6676,0,0,0,-5.5768,-5.5777,-5.583,-5.5923,-5.5962,-5.5935,-5.5951,-5.6185,-5.6204,-5.6291,-5.6309,-5.634,-5.6344,-5.6673,-5.6675,-5.6739,0,0,0,-5.5761,-5.5757,-5.5825,-5.5817,-5.5958,-5.6077,-5.5969,-5.6189,-5.6215,-5.6308,-5.6341,-5.6347,-5.6671,-5.6674,-5.6734,-5.6771,0,0,0,-5.5732,-5.5754,-5.5786,-5.5816,-5.591,-5.6074,-5.6106,-5.6195,-5.6226,-5.6336,-5.6347,-5.667,-5.6673,-5.6729,-5.6763,-5.6854,0,0,0,-5.5695,-5.5839,-5.5787,-5.5955,-5.5908,-5.6114,-5.6104,-5.6258,-5.6361,-5.6342,-5.6671,-5.6675,-5.6727,-5.6758,-5.6848,-5.6925,-5.6957,0,0,-5.5867,-5.5859,-5.596,-5.592,-5.6131,-5.6082,-5.6302,-5.641,-5.6435,-5.6594,-5.6602,-5.6736,-5.6762,-5.6853,-5.7145,-5.7169,0,0,0,-5.6008,-5.608,-5.614,-5.6238,-5.6327,-5.6406,-5.6483,-5.6524,-5.666,-5.6514,-5.6796,-5.6812,-5.6865,-5.6903,-5.6924,-5.697,-5.6692,-5.6692,-5.6692,-5.6224,-5.6252,-5.642,-5.6474,-5.657,-5.6651,-5.673,-5.6799,-5.6796,-5.6862,-5.6908,-5.7082,-5.7125,-5.7141,-5.7189,-5.6954,-5.6954,-5.6954,-5.6954,-5.6477,-5.6581,-5.6579,-5.6741,-5.6769,-5.6904,-5.6988,-5.6983,-5.7112,-5.7049,-5.7098,-5.7023,-5.7168,-5.7211,-5.696,-5.6959,-5.6958,-5.6958,-5.6957,-5.6618,-5.6673,-5.6723,-5.687,-5.6981,-5.7031,-5.7156,-5.7178,-5.7198,-5.7247,-5.7296,-5.7295,-5.7294,-5.727,-5.7271,-5.7271,-5.7272,-5.7272,-5.7272,-5.6743,-5.6798,-5.6901,-5.7011,-5.7078,-5.717,-5.7256,-5.7322,-5.74,-5.7405,-5.7406,-5.7395,-5.7179,-5.7121,-5.7282,-5.728,-5.7279,-5.7278,-5.7277,-5.6981,-5.6932,-5.7092,-5.716,-5.7291,-5.7399,-5.7428,-5.7561,-5.7619,-5.768,-5.7662,-5.75,-5.7491,-5.7475,-5.7427,-5.7657,-5.7657,-5.7657,-5.7657,-5.7097,-5.7098,-5.7267,-5.7374,-5.7482,-5.7525,-5.7704,-5.7773,-5.7836,-5.7874,-5.7845,-5.7786,-5.7768,-5.777,-5.7747,-5.7703,-5.7998,-5.7998,-5.7999,-5.7245,-5.7257,-5.7405,-5.7469,-5.7575,-5.7665,-5.7833,-5.7955,-5.8017,-5.8013,-5.7903,-5.7889,-5.7794,-5.7762,-5.7749,-5.7712,-5.7632,0,0]},{"header":{"parameterUnit":"m.s-1","parameterCategory":1,"la1":30.2992,"la2":30.254,"lo1":-89.0895,"lo2":-89.0443,"dy":0.0025,"dx":0.0025,"nx":19,"ny":19,"refTime":"2026-04-02T03:00:00:Z","depth":0,"parameterNumber":3,"parameterNumberName":"V-component_of_WINDS"},"data":[0,0,0,2.6009,2.6011,2.6118,2.6119,2.6235,2.6236,0,0,0,0,0,0,0,0,0,0,0,2.5967,2.5967,2.6009,2.6011,2.6118,2.6119,2.6235,2.6236,0,0,0,0,0,0,0,0,0,0,0,2.5967,2.5967,2.5968,2.6012,2.6118,2.6119,2.6234,2.616,0,0,0,0,0,0,0,0,0,0,2.606,2.6011,2.5967,2.5968,2.6012,2.6118,2.6119,2.6157,2.6165,2.6178,0,2.6189,0,2.6214,2.6242,2.6243,0,0,0,2.6018,2.6004,2.6043,2.5968,2.6013,2.6118,2.6072,2.6162,2.6171,2.6188,2.6191,2.6196,2.6216,2.6243,2.6243,2.6304,2.6304,0,0,2.6012,2.5979,2.6037,2.6049,2.6033,2.6068,2.6075,2.6167,2.6167,2.6191,2.6199,2.6218,2.6244,2.6244,2.6304,2.6304,0,0,0,2.5991,2.5975,2.6012,2.6043,2.6064,2.6071,2.6079,2.6163,2.6178,2.62,2.622,2.6244,2.6245,2.6305,2.6304,2.6273,0,0,0,2.5987,2.5963,2.6009,2.599,2.6062,2.6115,2.6072,2.6171,2.6183,2.6219,2.6244,2.6246,2.6305,2.6304,2.6274,2.6263,0,0,0,2.5963,2.596,2.5972,2.5988,2.6033,2.6115,2.6135,2.6175,2.6194,2.6243,2.6247,2.6305,2.6305,2.6275,2.6264,2.6271,0,0,0,2.5927,2.5939,2.5971,2.5992,2.6032,2.6095,2.6135,2.6182,2.622,2.6245,2.6305,2.6304,2.6275,2.6265,2.6272,2.6271,2.6268,0,0,2.5924,2.5937,2.5953,2.5985,2.6034,2.6081,2.6126,2.6189,2.6221,2.6274,2.6276,2.6274,2.6264,2.6271,2.626,2.6257,0,0,0,2.5941,2.5951,2.5972,2.6008,2.606,2.6103,2.6165,2.6189,2.6236,2.6243,2.6279,2.6274,2.6279,2.628,2.6278,2.6285,2.6304,2.6304,2.6304,2.5886,2.5932,2.5961,2.6021,2.6055,2.6121,2.6153,2.6197,2.6228,2.6236,2.6252,2.624,2.624,2.6239,2.6246,2.6255,2.6255,2.6255,2.6255,2.5886,2.5909,2.5957,2.6002,2.605,2.6087,2.6152,2.6174,2.6215,2.6231,2.6238,2.6251,2.6234,2.6243,2.6253,2.6253,2.6253,2.6254,2.6254,2.5856,2.5876,2.5908,2.5969,2.601,2.6069,2.6109,2.6149,2.6187,2.6194,2.6217,2.6217,2.6223,2.6202,2.6202,2.6202,2.6202,2.6202,2.6202,2.5812,2.585,2.588,2.594,2.5971,2.6017,2.6086,2.6116,2.6161,2.6187,2.6188,2.6219,2.6225,2.6225,2.6202,2.6202,2.6202,2.6202,2.6202,2.5795,2.5807,2.5852,2.5884,2.596,2.5999,2.6053,2.6113,2.6144,2.6163,2.6195,2.6192,2.6207,2.621,2.6211,2.6185,2.6185,2.6185,2.6185,2.5769,2.5783,2.5842,2.589,2.5942,2.5997,2.6047,2.6102,2.6159,2.6181,2.6191,2.6196,2.6196,2.6212,2.6214,2.6215,2.6191,2.6191,2.6191,2.5762,2.5784,2.5819,2.588,2.5943,2.5995,2.6045,2.6097,2.6164,2.6192,2.62,2.6199,2.6208,2.6208,2.6234,2.6237,2.624,0,0]}]]